Home   Weather   USA   Miami   Past weeks
Flag for USA

Past Weather in Miami, Florida, USA — December 2017

Currently: 77 °F. Passing clouds. (Weather station: Miami International Airport, USA). See more current weather

December 2017 Weather in Miami — Graph

°F

High & Low Weather Summary for December 2017

 TemperatureHumidityPressure
High86 °F (Dec 8, 12:53 pm)100% (Dec 7, 2:53 am)30.29 "Hg (Dec 7, 2:53 am)
Low49 °F (Dec 14, 12:53 am)22% (Dec 11, 2:53 pm)29.83 "Hg (Dec 9, 5:53 am)
Average71 °F73%30.12 "Hg
* Reported Dec 1 12:53 am — Dec 31 11:53 pm, Miami. Weather by CustomWeather, © 2021

Note: Actual official high and low records may vary slightly from our data, if they occured in-between our weather recording intervals... More about our weather records

Miami Weather History for December 1, 2017

Scroll right to see more
 ConditionsComfort  
Time TempWeatherWind HumidityBarometerVisibility
12:53 am
Fri, Dec 1
72 °FPassing clouds.3 mph78%30.02 "Hg10 mi
1:53 am72 °FPassing clouds.3 mph78%30.01 "Hg10 mi
2:53 am71 °FPassing clouds.3 mph84%30.01 "Hg10 mi
3:53 am71 °FPassing clouds.3 mph84%30.01 "Hg10 mi
4:53 am71 °FPassing clouds.5 mph84%30.01 "Hg10 mi
5:53 am71 °FPassing clouds.5 mph84%30.03 "Hg10 mi
6:53 am70 °FPassing clouds.7 mph90%30.05 "Hg10 mi
7:53 am73 °FPassing clouds.6 mph81%30.07 "Hg10 mi
8:53 am76 °FPassing clouds.8 mph74%30.08 "Hg10 mi
9:53 am79 °FPassing clouds.9 mph67%30.09 "Hg10 mi
10:53 am81 °FScattered clouds.12 mph62%30.07 "Hg10 mi
11:53 am83 °FScattered clouds.13 mph53%30.06 "Hg10 mi
12:53 pm81 °FBroken clouds.12 mph58%30.03 "Hg10 mi
1:53 pm83 °FScattered clouds.14 mph57%30.02 "Hg10 mi
2:53 pm82 °FPassing clouds.13 mph56%30.01 "Hg10 mi
3:53 pm81 °FPassing clouds.10 mph56%30.02 "Hg10 mi
4:53 pm79 °FPassing clouds.8 mph62%30.03 "Hg10 mi
5:53 pm78 °FPassing clouds.7 mph64%30.04 "Hg10 mi
6:53 pm77 °FPassing clouds.6 mph66%30.06 "Hg10 mi
7:53 pm76 °FPassing clouds.5 mph72%30.08 "Hg10 mi
8:53 pm76 °FPassing clouds.5 mph69%30.10 "Hg10 mi
9:53 pm75 °FPassing clouds.5 mph71%30.10 "Hg10 mi
10:53 pm75 °FPassing clouds.7 mph76%30.10 "Hg10 mi
11:53 pm75 °FPassing clouds.5 mph74%30.09 "Hg10 mi
Weather by CustomWeather, © 2021

See weather overview